User: anonymous   Login
Location: Lawrence
(38.9720°N, 95.2350°W)
Time: 06:50:32
(UTC-06:00)
Language:

ALOS - Orbit

View from above orbital plane
View from above orbital plane
View from above satellite
View from above satellite

Ground track
Ground track

The orbit data is extracted from the following two-line orbital elements,

1 28931U 06002A   14355.57552565  .00001611  00000-0  33350-3 0  1379
2 28931 097.9603 046.8773 0000582 038.9598 321.1645 14.61555072474699
Epoch (UTC): 21 December 2014 13:48:45
Eccentricity: 0.0000582
inclination: 97.9603°
perigee height: 688 km
apogee height: 688 km
right ascension of ascending node: 46.8773°
argument of perigee: 38.9598°
revolutions per day: 14.61555072
mean anomaly at epoch: 321.1645°
orbit number at epoch: 47469

The dashed part of the orbit path shows where the satellite is in the earth's shadow,  

DLR